Dauntless Aviation
Airports Europe Switzerland
LSGG
GVA

Geneva Cointrin International Airport

Geneva, SWITZERLAND

Airport Info
Suggest Updated Information for this Airport

Location

Latitude / Longitude: 46°14'17"N / 6°6'32"E
  46°14.286'N / 6°6.54'E
  46.2381 / 6.1090

Nearby radio navigation aids

GLA GLAND NDB. 209.1° 11.7nm from GLA to field.
GVA GENEVA COINTRIN VOR/DME. 225.8° 1.4nm from GVA to field.

Runway Information

Runway 05 /23

Dimensions: 12795 x 164 ft.
Surface: ASP
 
Runway 05
Runway 23
Latitude: 46.227839 46.250353
Longitude: 6.093947 6.126994
Elevation: 1411 ft. 1411 ft.
Runway true heading: 44.2 224.2
 

Instrument Procedures

  Aerodrome Ground Movement Chart - Area North
  Area Chart - Transit Routes THROUGH GENEVA TMA/ DESTINATION LFLB and LFLP

Departure Procedures

  Area Chart - Routing AFTER KONIL / SPR / MOLUS Departures
  Aerodrome Chart
  Aircraft Parking/Docking Chart - Area South

STARs (Standard Terminal Arrivals)

  STAR - STAR Rwy 22 - RNAV (GNSS) BELUS - KINES - BANKO
  STAR - STAR Rwy 04/22 - NON RNAV DJL - FRI
  STAR - STAR Rwy 04/22 - NON RNAV BELUS - BANKO
  STAR - STAR Rwy 04 - RNAV (GNSS) LUSAR - DJL - AKITO
  STAR - STAR Rwy 04 - RNAV (GNSS) BENOT- ULMES
  STAR - STAR Rwy 04 - RNAV (GNSS) BELUS - KINES - BANKO
  STAR - STAR Rwy 22 - RNAV (GNSS) LUSAR - DJL - AKITO
  STAR - STAR Rwy 22 - RNAV (GNSS) BENOT - ULMES

IAPs (Instrument Approach Procedures)

  RNAV (GNSS) Rwy 22
  RNAV (GNSS) Rwy 04
  MNM OBST CLR Chart (Based On Vectoring CRITERIA)
  Aerodrome Information (Textual)
  Aerodrome Obstacle Chart - Type A - Rwy 04
  Aerodrome Obstacle Chart - Type A - Rwy 22
  Precision Approach Terrain Chart - Rwy 22 - Dimensions and Elevations in Metres
  ILS Rwy 22 CAT II and CAT III
  LOC Rwy 22
  VOR Rwy 22
  SRA Rwy 22
  ILS Rwy 04
  LOC Rwy 04
  VOR Rwy 04
  SRA Rwy 04

Departure Procedures

  SID - SID Rwy 04 - RNAV
  SID - SID Rwy 22 - RNAV
  SID - SID Rwy 04 - NON RNAV
  SID - SID Rwy 22 - NON RNAV
Satellite photo at:
Airport distance calculator
From:
Weather Reports

METAR

LSGG

LSGG 290650Z 34001KT CAVOK 04/01 Q1006 NOSIG
LFLP
19.3nm S
LFLP 290700Z AUTO 06003KT CAVOK 04/02 Q1007 NOSIG
LFLB
37.7nm S
LFLB 290700Z AUTO 33005KT CAVOK 06/02 Q1007 BECMG 18010KT

TAF

LSGG
TAF LSGG 290525Z 2906/0112 VRB03KT CAVOK TX13/2915Z TN04/2906Z TN05/0106Z BECMG 2907/2909 23007KT 9999 BKN060 BECMG 2910/2913 23015G25KT TEMPO 2915/2922 RA TEMPO 0101/0104 SHRA BECMG 0102/0104 23007KT
LFLP
19.3nm S
TAF LFLP 290200Z 2903/0103 VRB03KT CAVOK BECMG 2910/2913 23010KT PROB40 TEMPO 2912/2914 24015G25KT TEMPO 2914/2920 24015G25KT 3000 SHRA FEW028CB BKN032TCU
LFLB
37.7nm S
TAF LFLB 290500Z 2906/0106 18010KT CAVOK TEMPO 2909/2915 18015G30KT TEMPO 2915/2920 4000 SHRA BKN035TCU
Safelog

 

Dauntless Aviation

© 2007-2020 Dauntless Aviation, all rights reserved
Information provided via PilotNav comes from a variety of official and unofficial data sources. As errors are possible, do not use PilotNav for primary flight planning purposes. Verify any information that you receive via PilotNav with current and canonical charts and other official documents. The material in this database is subject to database copyrights held by Dauntless Aviation and may not be copied without the express permission of Dauntless Aviation - licenses for use of part of all of this data are available for purchase; enquire via the Dauntless Aviation helpdesk. A number of mechanisms and markers exist in the database to protect against and identify infringement / copyright. Automated queries against this website are stictly prohibited, and all activity is logged and analyzed.